Starlink 5796

operational
NORAD ID: 55916 Int'l Des: 2023-037 Owner: SPXS Country: US Constellation: starlink
LEOCIRCULAR

About Starlink 5796

Description loading...

Live Position

Loading 3D Globe...

Upcoming Passes

Altitude History

Altitude vs Time

uPlot chart will show altitude changes over time

Two-Line Element Set

1 55916U 23037C 25303.30474226 -.00000066 00000-0 22621-5 0 9993
2 55916 69.9988 273.3262 0002886 264.6029 95.4801 14.98330495143950
Epoch: Oct 30, 2025 • Age: 14 hours

Current Status

Altitude 594.5 km
Velocity 7.56 km/s
Sub-Earth Point -65.43°S, 140.92°W
Launch Date Mar 17, 2023
Age 2.6 years
Type internet

Technical Details

Classification Payload
Mass 305.00 kg
Dry Mass 290.00 kg
Total Mass 305.00 kg
Length 0.20 m
Diameter 2.80 m
Span 9.00 m
Shape Box + pan
Manufacturer SPXS
Bus Type Starlink
Phase Status In Orbit
Owner/State SPXS/US

Large Constellations

Loading constellations...